HI3LT-16 Weather Reports


Display with metric or nautical units.
time (UTC)temp
F
wind
direction
speed
MPH
gust
MPH
rain 1hr
in
rain 24hr
in
rain mn
in
humidity
%
barometer
mb
20260505000153 86 90 6.0 0.0 0.00 0.00 0.00 62 1014.0
20260504235152 86 90 6.0 0.0 0.00 0.00 0.00 62 1014.0
20260504234151 86 90 6.0 0.0 0.00 0.00 0.00 62 1014.0
20260504233149 86 90 6.0 0.0 0.00 0.00 0.00 62 1014.0
20260504232148 86 90 6.0 0.0 0.00 0.00 0.00 62 1013.0
20260504231145 86 90 6.0 0.0 0.00 0.00 0.00 62 1013.0
20260504230144 86 80 9.0 0.0 0.00 0.00 0.00 62 1013.0
20260504225142 86 80 9.0 0.0 0.00 0.00 0.00 62 1013.0
20260504224140 86 80 9.0 0.0 0.00 0.00 0.00 62 1013.0
20260504223137 86 90 11.0 0.0 0.00 0.00 0.00 60 1013.0
20260504222136 86 90 11.0 0.0 0.00 0.00 0.00 60 1013.0
20260504221135 86 90 11.0 0.0 0.00 0.00 0.00 59 1013.0
20260504220133 87 90 11.0 0.0 0.00 0.00 0.00 57 1013.0
20260504215132 87 90 11.0 0.0 0.00 0.00 0.00 57 1013.0
20260504214131 87 90 11.0 0.0 0.00 0.00 0.00 57 1013.0
20260504213129 87 90 11.0 0.0 0.00 0.00 0.00 57 1013.0
20260504212127 87 90 11.0 0.0 0.00 0.00 0.00 57 1013.0
20260504211114 87 90 11.0 0.0 0.00 0.00 0.00 56 1013.0
20260504210113 87 90 11.0 0.0 0.00 0.00 0.00 55 1013.0
20260504205106 87 90 12.0 0.0 0.00 0.00 0.00 53 1013.0
20260504204105 87 90 12.0 0.0 0.00 0.00 0.00 53 1013.0
20260504203103 87 90 12.0 0.0 0.00 0.00 0.00 53 1013.0
20260504202100 87 90 12.0 0.0 0.00 0.00 0.00 53 1013.0
20260504201059 87 90 12.0 0.0 0.00 0.00 0.00 53 1013.0
20260504200058 87 100 11.0 0.0 0.00 0.00 0.00 53 1013.0
20260504195056 87 100 11.0 0.0 0.00 0.00 0.00 53 1013.0
20260504194055 87 100 11.0 0.0 0.00 0.00 0.00 53 1013.0
20260504193053 87 100 11.0 0.0 0.00 0.00 0.00 53 1013.0
20260504192052 87 100 11.0 0.0 0.00 0.00 0.00 54 1013.0
20260504191051 86 100 11.0 0.0 0.00 0.00 0.00 55 1013.0
20260504190049 85 100 12.0 0.0 0.00 0.00 0.00 56 1013.0
20260504185048 85 100 12.0 0.0 0.00 0.00 0.00 56 1013.0
20260504184046 85 100 12.0 0.0 0.00 0.00 0.00 56 1013.0
20260504183044 85 100 12.0 0.0 0.00 0.00 0.00 56 1013.0
20260504182042 85 100 12.0 0.0 0.00 0.00 0.00 56 1014.0
20260504181040 85 100 12.0 0.0 0.00 0.00 0.00 56 1014.0
20260504180039 85 100 12.0 23.0 0.00 0.00 0.00 56 1014.0
20260504175038 85 100 12.0 23.0 0.00 0.00 0.00 56 1014.0
20260504174035 85 100 12.0 23.0 0.00 0.00 0.00 56 1014.0
20260504173034 85 100 12.0 23.0 0.00 0.00 0.00 57 1014.0
20260504172032 85 100 12.0 23.0 0.00 0.00 0.00 58 1015.0
20260504171031 85 100 12.0 23.0 0.00 0.00 0.00 60 1015.0
20260504151012 84 100 10.0 0.0 0.00 0.00 0.00 66 1016.0
20260504141001 79 110 11.0 0.0 0.00 0.00 0.00 80 1016.0
20260504081909 73 140 4.0 0.0 0.00 0.00 0.00 94 1015.0
20260504080908 73 140 4.0 0.0 0.00 0.00 0.00 94 1015.0
20260504045842 73 120 4.0 0.0 0.00 0.00 0.00 94 1016.0
20260504044841 74 120 4.0 0.0 0.00 0.00 0.00 94 1016.0
20260504043839 75 120 4.0 0.0 0.00 0.00 0.00 88 1016.0
20260504042838 75 120 4.0 0.0 0.00 0.00 0.00 88 1016.0
20260504041836 75 120 4.0 0.0 0.00 0.00 0.00 88 1016.0
20260504040834 75 100 4.0 0.0 0.00 0.00 0.00 88 1016.0
20260504035833 75 100 4.0 0.0 0.00 0.00 0.00 88 1016.0
20260504034831 75 100 4.0 0.0 0.00 0.00 0.00 88 1016.0
20260504033829 75 100 4.0 0.0 0.00 0.00 0.00 88 1016.0
20260504032828 75 100 4.0 0.0 0.00 0.00 0.00 88 1016.0
20260504031826 75 100 4.0 0.0 0.00 0.00 0.00 88 1016.0
20260504030825 75 100 4.0 0.0 0.00 0.00 0.00 88 1016.0
20260504025823 75 70 4.0 0.0 0.00 0.00 0.00 88 1016.0
20260504024822 75 70 4.0 0.0 0.00 0.00 0.00 88 1016.0
20260504023820 75 70 4.0 0.0 0.00 0.00 0.00 88 1016.0
20260504022819 75 70 4.0 0.0 0.00 0.00 0.00 88 1016.0
20260504021817 75 70 4.0 0.0 0.00 0.00 0.00 88 1016.0
20260504020816 75 70 4.0 0.0 0.00 0.00 0.00 88 1016.0
20260504015814 79 80 4.0 0.0 0.00 0.00 0.00 69 1016.0
20260504014813 79 80 4.0 0.0 0.00 0.00 0.00 69 1016.0
20260504013811 79 80 4.0 0.0 0.00 0.00 0.00 69 1016.0
20260504012810 79 80 4.0 0.0 0.00 0.00 0.00 69 1015.0
20260504011808 79 80 4.0 0.0 0.00 0.00 0.00 69 1015.0
20260504010807 79 80 4.0 0.0 0.00 0.00 0.00 69 1015.0
20260504005805 81 90 5.0 0.0 0.00 0.00 0.00 65 1015.0
20260504004804 81 90 5.0 0.0 0.00 0.00 0.00 65 1015.0
20260504003802 81 90 5.0 0.0 0.00 0.00 0.00 65 1015.0
20260504002801 81 90 5.0 0.0 0.00 0.00 0.00 65 1014.0
20260504001800 81 90 5.0 0.0 0.00 0.00 0.00 65 1014.0
20260504000758 82 111 8.0 20.0 0.00 0.00 0.00 59 1014.0